FW2728 Weather Reports


Display with metric or nautical units.
time (UTC)temp
F
wind
direction
speed
MPH
gust
MPH
rain 1hr
in
rain 24hr
in
rain mn
in
humidity
%
barometer
mb
20260508080516 62 69 0.0 2.0 0.00 0.00 0.00 83 1015.1
20260508075516 62 64 0.0 2.0 0.00 0.00 0.00 83 1015.4
20260508074536 62 37 0.0 1.0 0.00 0.00 0.00 82 1015.7
20260508073516 61 183 0.0 1.0 0.00 0.00 0.00 82 1015.8
20260508072517 62 25 0.0 1.0 0.00 0.00 0.00 81 1015.6
20260508071517 62 59 0.0 1.0 0.00 0.00 0.00 81 1015.7
20260508070517 61 56 0.0 1.0 0.00 0.00 0.00 81 1015.5
20260508065517 61 52 0.0 1.0 0.00 0.00 0.00 81 1015.5
20260508064517 61 49 0.0 2.0 0.00 0.00 0.00 81 1015.5
20260508063518 61 69 0.0 1.0 0.00 0.00 0.00 81 1015.6
20260508062518 61 50 0.0 1.0 0.00 0.00 0.00 81 1015.8
20260508061518 61 65 0.0 2.0 0.00 0.00 0.00 81 1015.8
20260508060518 61 75 0.0 1.0 0.00 0.00 0.00 80 1016.0
20260508055539 61 348 0.0 2.0 0.00 0.00 0.00 80 1016.1
20260508054515 61 113 0.0 1.0 0.00 0.00 0.00 80 1016.1
20260508053515 61 360 0.0 1.0 0.00 0.00 0.00 81 1016.2
20260508052516 61 125 0.0 1.0 0.00 0.00 0.00 81 1016.2
20260508051516 61 56 0.0 1.0 0.00 0.00 0.00 80 1016.2
20260508050516 61 56 0.0 1.0 0.00 0.00 0.00 80 1016.1
20260508045517 61 64 0.0 2.0 0.00 0.00 0.00 80 1016.2
20260508044518 61 63 0.0 1.0 0.00 0.00 0.00 79 1016.1
20260508043517 62 60 0.0 2.0 0.00 0.00 0.00 78 1016.0
20260508042517 62 49 0.0 2.0 0.00 0.00 0.00 77 1016.0
20260508041517 62 57 0.0 2.0 0.00 0.00 0.00 77 1016.2
20260508040519 62 73 0.0 1.0 0.00 0.00 0.00 76 1016.0
20260508035518 62 35 0.0 3.0 0.00 0.00 0.00 75 1016.0
20260508034538 62 73 0.0 1.0 0.00 0.00 0.00 75 1015.7
20260508033515 62 59 0.0 1.0 0.00 0.00 0.00 74 1015.8
20260508032515 63 69 0.0 1.0 0.00 0.00 0.00 73 1015.7
20260508031536 63 80 0.0 1.0 0.00 0.00 0.00 72 1015.4
20260508030516 64 60 0.0 1.0 0.00 0.00 0.00 70 1015.4
20260508025516 64 60 0.0 2.0 0.00 0.00 0.00 68 1015.4
20260508024516 64 80 0.0 1.0 0.00 0.00 0.00 67 1015.3
20260508023537 65 68 0.0 1.0 0.00 0.00 0.00 66 1015.3
20260508022516 65 206 0.0 1.0 0.00 0.00 0.00 66 1015.4
20260508021517 65 273 0.0 1.0 0.00 0.00 0.00 67 1015.4
20260508020517 65 68 0.0 1.0 0.00 0.00 0.00 66 1015.0
20260508015517 65 47 0.0 1.0 0.00 0.00 0.00 65 1015.2
20260508014517 66 68 0.0 1.0 0.00 0.00 0.00 64 1015.3
20260508013517 66 322 0.0 1.0 0.00 0.00 0.00 63 1015.2
20260508012538 66 107 0.0 1.0 0.00 0.00 0.00 62 1015.1
20260508011518 67 200 0.0 2.0 0.00 0.00 0.00 61 1015.2
20260508010538 67 106 0.0 1.0 0.00 0.00 0.00 60 1015.1
20260508005518 67 167 0.0 2.0 0.00 0.00 0.00 60 1015.3
20260508004518 68 205 1.0 3.0 0.00 0.00 0.00 58 1015.2
20260508003515 68 182 0.0 2.0 0.00 0.00 0.00 58 1015.1
20260508002515 68 175 0.0 2.0 0.00 0.00 0.00 57 1015.2
20260508001515 68 203 0.0 1.0 0.00 0.00 0.00 57 1015.3
20260508000516 69 222 1.0 4.0 0.00 0.00 0.00 56 1015.5
20260507235516 69 218 0.0 2.0 0.00 0.00 0.00 56 1015.3
20260507234516 69 213 1.0 3.0 0.00 0.00 0.00 57 1015.4
20260507233517 69 224 1.0 4.0 0.00 0.00 0.00 57 1015.5
20260507232517 69 232 1.0 6.0 0.00 0.00 0.00 56 1015.4
20260507231517 69 215 2.0 4.0 0.00 0.00 0.00 56 1015.5
20260507230538 69 217 2.0 5.0 0.00 0.00 0.00 56 1015.6
20260507225518 69 220 2.0 6.0 0.00 0.00 0.00 56 1015.6
20260507224517 70 229 2.0 4.0 0.00 0.01 0.00 56 1015.6
20260507223520 70 234 2.0 5.0 0.00 0.10 0.00 54 1015.7
20260507222518 71 225 2.0 7.0 0.00 0.11 0.00 53 1015.8
20260507221538 71 254 1.0 4.0 0.00 0.11 0.00 48 1015.7
20260507220518 72 233 0.0 2.0 0.00 0.11 0.00 47 1015.7
20260507215538 72 227 1.0 3.0 0.00 0.11 0.00 47 1015.7
20260507214519 73 295 1.0 3.0 0.00 0.11 0.00 46 1015.7
20260507213515 73 293 0.0 2.0 0.00 0.11 0.00 44 1015.8
20260507212516 73 70 1.0 3.0 0.00 0.11 0.00 46 1016.1
20260507211516 73 33 0.0 1.0 0.00 0.11 0.00 45 1016.3
20260507210516 73 197 0.0 1.0 0.00 0.11 0.00 45 1016.6
20260507205537 73 168 1.0 2.0 0.00 0.11 0.00 43 1016.6
20260507204517 73 147 2.0 4.0 0.00 0.11 0.00 45 1016.5
20260507203517 73 50 1.0 2.0 0.00 0.11 0.00 45 1016.4
20260507202517 73 47 1.0 4.0 0.00 0.11 0.00 44 1016.3
20260507201517 73 49 2.0 5.0 0.00 0.11 0.00 44 1016.4
20260507200518 73 48 1.0 3.0 0.00 0.11 0.00 44 1016.6
20260507195518 73 47 2.0 4.0 0.00 0.11 0.00 43 1016.9
20260507194518 74 46 2.0 6.0 0.00 0.11 0.00 44 1016.9
20260507193518 74 53 2.0 4.0 0.00 0.11 0.00 41 1017.1
20260507192518 74 47 2.0 6.0 0.00 0.11 0.00 43 1017.4
20260507191515 75 60 2.0 4.0 0.00 0.11 0.00 41 1017.6
20260507190515 75 223 2.0 5.0 0.00 0.11 0.00 40 1017.7
20260507185516 74 50 2.0 4.0 0.00 0.11 0.00 43 1017.5
20260507184516 74 46 2.0 5.0 0.00 0.11 0.00 42 1017.5
20260507183516 74 46 3.0 8.0 0.00 0.11 0.00 41 1017.5
20260507182516 73 46 2.0 6.0 0.00 0.11 0.00 44 1017.5
20260507181516 72 47 4.0 8.0 0.00 0.11 0.00 44 1017.6
20260507180516 71 43 3.0 7.0 0.00 0.11 0.00 45 1017.7
20260507175517 71 31 2.0 7.0 0.00 0.11 0.00 46 1017.8
20260507174517 71 43 2.0 6.0 0.00 0.11 0.00 46 1018.0
20260507173517 70 41 2.0 6.0 0.00 0.11 0.00 49 1018.1
20260507172517 70 47 2.0 4.0 0.00 0.11 0.00 50 1018.3
20260507171517 69 48 1.0 4.0 0.00 0.11 0.00 54 1018.6
20260507170517 69 53 2.0 6.0 0.00 0.11 0.00 55 1018.9
20260507165518 68 48 2.0 7.0 0.00 0.11 0.00 55 1019.3
20260507164518 69 53 1.0 5.0 0.00 0.11 0.00 54 1019.5
20260507163518 68 62 2.0 6.0 0.00 0.11 0.00 56 1019.6
20260507162518 68 54 1.0 4.0 0.00 0.11 0.00 57 1019.5
20260507161518 67 59 1.0 4.0 0.00 0.11 0.00 60 1019.7
20260507160516 66 51 1.0 6.0 0.00 0.11 0.00 61 1019.7
20260507155515 65 55 2.0 7.0 0.00 0.11 0.00 63 1019.5
20260507154516 67 55 2.0 6.0 0.00 0.11 0.00 61 1019.5
20260507153516 67 60 1.0 4.0 0.00 0.11 0.00 61 1019.6
20260507152536 66 47 1.0 4.0 0.00 0.11 0.00 63 1019.9
20260507151516 65 59 2.0 4.0 0.00 0.12 0.00 64 1019.9
20260507150517 65 56 1.0 4.0 0.00 0.12 0.00 66 1020.0
20260507145517 65 62 1.0 3.0 0.00 0.17 0.00 64 1020.0
20260507144517 64 58 1.0 4.0 0.00 0.17 0.00 67 1020.1
20260507143517 63 55 1.0 6.0 0.00 0.17 0.00 69 1020.2
20260507142517 63 63 1.0 4.0 0.00 0.17 0.00 71 1020.1
20260507141517 63 60 1.0 4.0 0.00 0.17 0.00 72 1020.2
20260507140517 62 59 2.0 4.0 0.00 0.17 0.00 73 1020.4
20260507135538 61 41 1.0 2.0 0.00 0.17 0.00 77 1020.3
20260507134518 60 58 1.0 4.0 0.00 0.17 0.00 78 1020.5
20260507133558 59 61 1.0 3.0 0.00 0.17 0.00 83 1020.5
20260507132535 58 57 1.0 3.0 0.00 0.17 0.00 89 1020.6
20260507131538 56 310 0.0 2.0 0.00 0.17 0.00 91 1020.7
20260507130556 55 327 0.0 2.0 0.00 0.17 0.00 93 1020.7
20260507125556 54 66 0.0 1.0 0.00 0.17 0.00 94 1020.7
20260507124516 54 70 0.0 2.0 0.00 0.17 0.00 94 1020.6
20260507123516 53 58 0.0 1.0 0.00 0.17 0.00 94 1020.6
20260507122536 53 52 0.0 1.0 0.00 0.17 0.00 94 1020.3
20260507121516 53 64 0.0 1.0 0.00 0.17 0.00 94 1020.4
20260507120516 53 52 0.0 1.0 0.00 0.17 0.00 93 1020.5
20260507115517 53 38 0.0 0.0 0.00 0.17 0.00 93 1020.6
20260507114517 53 76 0.0 0.0 0.00 0.17 0.00 92 1020.5
20260507113517 53 0.0 0.0 0.00 0.17 0.00 92 1020.3
20260507112517 54 77 0.0 1.0 0.00 0.17 0.00 92 1020.0
20260507111517 54 343 0.0 1.0 0.00 0.17 0.00 92 1019.9
20260507110537 53 29 0.0 1.0 0.00 0.17 0.00 92 1019.8
20260507105518 53 24 0.0 1.0 0.00 0.17 0.00 92 1019.8
20260507104517 53 26 0.0 2.0 0.00 0.17 0.00 92 1019.5
20260507103518 53 33 0.0 1.0 0.00 0.17 0.00 92 1019.4
20260507102518 53 13 0.0 1.0 0.00 0.17 0.00 91 1019.1
20260507101518 53 10 0.0 2.0 0.00 0.17 0.00 91 1019.0
20260507100515 54 34 0.0 1.0 0.00 0.17 0.00 91 1018.8
20260507095516 54 314 0.0 2.0 0.00 0.17 0.00 90 1018.7
20260507094515 54 14 0.0 1.0 0.00 0.17 0.00 89 1018.5
20260507093516 54 71 0.0 1.0 0.00 0.17 0.00 88 1018.3
20260507092516 55 125 0.0 1.0 0.00 0.17 0.00 87 1018.2
20260507091557 55 54 0.0 1.0 0.00 0.17 0.00 86 1018.3
20260507090557 56 60 1.0 3.0 0.00 0.17 0.00 85 1018.2
20260507085517 56 54 2.0 3.0 0.00 0.17 0.00 85 1018.0
20260507084517 56 53 1.0 3.0 0.00 0.17 0.00 86 1017.8
20260507083517 56 52 1.0 3.0 0.00 0.17 0.00 86 1017.8
20260507082518 56 52 1.0 5.0 0.00 0.17 0.00 86 1018.0
20260507081517 56 47 0.0 2.0 0.00 0.17 0.00 85 1018.1